SRR782 ELLX-LCLK

Flight info

Callsign SRR782
Flight time N/A
Altitude 35000
Route GTQ DCT TRA DCT OZE DCT LOS DCT SPL DCT TRN DCT TALAS UN130 MES UL609 RDS UM601 EVENO M601 BONEK
Aircraft B77L/H-SDE1E2E3FGHIJ2J3J4J5M1RWXY/LB1D1

Departure

Time 2026-05-08 07:29
Airport Luxembourg-Findel International Airport (ELLX)

Arrival

Time N/A
Airport Larnaca International Airport (LCLK)
Time Latitude Longitude Altitude Speed Heading
2026-05-08 07:23 49.63408 6.22674 1213 ft 13 kts 239°
2026-05-08 07:23 49.63354 6.22527 1213 ft 18 kts 240°
2026-05-08 07:23 49.63296 6.22348 1216 ft 17 kts 245°
2026-05-08 07:23 49.63244 6.22172 1221 ft 19 kts 244°
2026-05-08 07:24 49.63173 6.21948 1228 ft 27 kts 244°
2026-05-08 07:24 49.63087 6.21685 1233 ft 25 kts 243°
2026-05-08 07:24 49.63011 6.21442 1236 ft 29 kts 243°
2026-05-08 07:24 49.62919 6.21137 1244 ft 29 kts 245°
2026-05-08 07:25 49.62831 6.20866 1246 ft 26 kts 236°
2026-05-08 07:25 49.62713 6.20649 1240 ft 26 kts 225°
2026-05-08 07:25 49.62475 6.20227 1227 ft 26 kts 238°
2026-05-08 07:26 49.62383 6.19967 1216 ft 29 kts 240°
2026-05-08 07:26 49.62276 6.19686 1201 ft 32 kts 239°
2026-05-08 07:26 49.62160 6.19374 1186 ft 35 kts 240°
2026-05-08 07:26 49.62034 6.19040 1172 ft 36 kts 239°
2026-05-08 07:27 49.61960 6.18848 1163 ft 16 kts 233°
2026-05-08 07:27 49.61880 6.18739 1157 ft 13 kts 212°
2026-05-08 07:27 49.61802 6.18732 1156 ft 10 kts 158°
2026-05-08 07:27 49.61776 6.18790 1157 ft 4 kts 86°
2026-05-08 07:28 49.61789 6.18837 1159 ft 5 kts 60°
2026-05-08 07:28 49.61813 6.18900 1162 ft 19 kts 60°
2026-05-08 07:28 49.62014 6.19451 1186 ft 99 kts 60°
2026-05-08 07:28 49.62478 6.20704 1233 ft 170 kts 60°
2026-05-08 07:29 49.63121 6.22449 1785 ft 193 kts 60°
2026-05-08 07:29 49.63781 6.24184 2891 ft 190 kts 61°
2026-05-08 07:29 49.64171 6.26140 3494 ft 199 kts 94°
2026-05-08 07:29 49.63722 6.28169 4081 ft 211 kts 126°
2026-05-08 07:30 49.62683 6.29861 4683 ft 224 kts 135°
2026-05-08 07:30 49.61531 6.31536 5393 ft 235 kts 135°
2026-05-08 07:30 49.60301 6.33305 6073 ft 249 kts 137°
2026-05-08 07:30 49.59003 6.35121 6947 ft 255 kts 138°
2026-05-08 07:31 49.57711 6.36861 7950 ft 254 kts 137°
2026-05-08 07:31 49.56439 6.38747 8722 ft 260 kts 138°
2026-05-08 07:31 49.54892 6.40372 9168 ft 278 kts 154°
2026-05-08 07:31 49.53111 6.41642 9911 ft 286 kts 157°
2026-05-08 07:32 49.51276 6.42894 10603 ft 296 kts 157°
2026-05-08 07:32 49.49350 6.44218 11140 ft 313 kts 157°
2026-05-08 07:32 49.47321 6.45622 11705 ft 329 kts 157°
2026-05-08 07:32 49.45197 6.47094 12279 ft 344 kts 157°
2026-05-08 07:33 49.42974 6.48634 12870 ft 359 kts 157°
2026-05-08 07:33 49.40662 6.50235 13471 ft 373 kts 156°
2026-05-08 07:33 49.38256 6.51898 14068 ft 387 kts 156°
2026-05-08 07:33 49.35771 6.53615 14736 ft 398 kts 156°
2026-05-08 07:34 49.33240 6.55361 15591 ft 404 kts 156°
2026-05-08 07:34 49.30676 6.57128 16479 ft 408 kts 157°
2026-05-08 07:34 49.28083 6.58913 17325 ft 414 kts 157°
2026-05-08 07:34 49.25456 6.60719 18147 ft 419 kts 157°
2026-05-08 07:35 49.22760 6.62398 18986 ft 422 kts 163°
2026-05-08 07:35 49.19933 6.63574 19826 ft 425 kts 167°
2026-05-08 07:35 49.17060 6.64666 20653 ft 429 kts 167°
2026-05-08 07:35 49.14166 6.65760 21442 ft 434 kts 168°
2026-05-08 07:36 49.11180 6.66890 22233 ft 438 kts 168°
2026-05-08 07:36 49.08213 6.68012 22975 ft 443 kts 168°
2026-05-08 07:36 49.05218 6.69144 23706 ft 447 kts 168°
2026-05-08 07:36 49.02203 6.70358 24381 ft 453 kts 164°
2026-05-08 07:37 48.99282 6.72178 25015 ft 460 kts 155°
2026-05-08 07:37 48.96541 6.74714 25629 ft 467 kts 146°
2026-05-08 07:37 48.94035 6.77868 26230 ft 473 kts 140°
2026-05-08 07:37 48.91593 6.81220 26857 ft 477 kts 140°
2026-05-08 07:38 48.89125 6.84617 27496 ft 481 kts 140°
2026-05-08 07:38 48.86639 6.88030 28118 ft 485 kts 140°
2026-05-08 07:38 48.84132 6.91462 28718 ft 490 kts 140°
2026-05-08 07:38 48.81569 6.94962 29340 ft 494 kts 140°
2026-05-08 07:39 48.78989 6.98480 30133 ft 494 kts 140°
2026-05-08 07:39 48.76424 7.01972 31084 ft 490 kts 140°
2026-05-08 07:39 48.73865 7.05448 31984 ft 485 kts 140°
2026-05-08 07:39 48.71313 7.08909 32760 ft 482 kts 140°
2026-05-08 07:40 48.68781 7.12335 33429 ft 481 kts 140°
2026-05-08 07:40 48.66250 7.15757 34062 ft 479 kts 140°
2026-05-08 07:40 48.63740 7.19143 34678 ft 478 kts 140°
2026-05-08 07:40 48.61223 7.22534 34976 ft 480 kts 140°
2026-05-08 07:41 48.58691 7.25942 35044 ft 481 kts 140°
2026-05-08 07:41 48.53638 7.32727 35057 ft 477 kts 140°
2026-05-08 07:42 48.48596 7.39477 35060 ft 478 kts 140°
2026-05-08 07:42 48.43531 7.46240 35056 ft 477 kts 140°
2026-05-08 07:43 48.38553 7.52867 35048 ft 478 kts 140°
2026-05-08 07:43 48.33590 7.59457 35059 ft 477 kts 140°
2026-05-08 07:44 48.28617 7.66043 35044 ft 477 kts 141°
2026-05-08 07:44 48.23632 7.72627 35043 ft 477 kts 141°
2026-05-08 07:45 48.18662 7.79172 35042 ft 477 kts 141°
2026-05-08 07:45 48.13696 7.85697 35043 ft 477 kts 141°
2026-05-08 07:46 48.08713 7.92225 35046 ft 476 kts 141°
2026-05-08 07:46 48.03732 7.98732 35043 ft 477 kts 141°
2026-05-08 07:47 47.98746 8.05230 35040 ft 477 kts 141°
2026-05-08 07:47 47.93759 8.11711 35040 ft 477 kts 141°
2026-05-08 07:48 47.88760 8.18191 35036 ft 476 kts 141°
2026-05-08 07:48 47.83764 8.24650 35043 ft 476 kts 141°
2026-05-08 07:49 47.78772 8.31085 35045 ft 477 kts 141°
2026-05-08 07:49 47.73766 8.37523 35053 ft 477 kts 142°
2026-05-08 07:50 47.68930 8.44221 35058 ft 480 kts 133°
2026-05-08 07:50 47.65141 8.52424 35067 ft 485 kts 125°
2026-05-08 07:51 47.61555 8.60870 35066 ft 486 kts 125°
2026-05-08 07:51 47.57950 8.69298 35059 ft 485 kts 126°
2026-05-08 07:52 47.54337 8.77696 35059 ft 486 kts 126°
2026-05-08 07:52 47.50699 8.86114 35058 ft 486 kts 126°
2026-05-08 07:53 47.47015 8.94606 35078 ft 487 kts 126°
2026-05-08 07:53 47.43314 9.03107 35077 ft 487 kts 126°
2026-05-08 07:54 47.39615 9.11575 35092 ft 487 kts 127°
2026-05-08 07:54 47.35905 9.20043 35081 ft 488 kts 127°
2026-05-08 07:55 47.32181 9.28514 35079 ft 489 kts 127°
2026-05-08 07:55 47.28451 9.36972 35088 ft 488 kts 127°
2026-05-08 07:56 47.24699 9.45455 35076 ft 490 kts 127°
2026-05-08 07:56 47.20936 9.53936 35071 ft 490 kts 127°
2026-05-08 07:57 47.17182 9.62373 35099 ft 490 kts 127°
2026-05-08 07:57 47.13388 9.70871 35087 ft 490 kts 128°
2026-05-08 07:58 47.09625 9.79274 35101 ft 490 kts 128°
2026-05-08 07:58 47.05827 9.87729 35112 ft 491 kts 128°
2026-05-08 07:59 47.02028 9.96163 35110 ft 492 kts 128°
2026-05-08 07:59 46.98212 10.04606 35108 ft 492 kts 128°
2026-05-08 08:00 46.94403 10.13009 35095 ft 491 kts 128°
2026-05-08 08:00 46.90588 10.21400 35069 ft 492 kts 128°
2026-05-08 08:01 46.86804 10.29698 35075 ft 492 kts 129°
2026-05-08 08:01 46.83001 10.38011 35071 ft 492 kts 128°
2026-05-08 08:02 46.79207 10.46283 35081 ft 491 kts 128°
2026-05-08 08:02 46.75400 10.54555 35081 ft 493 kts 129°
2026-05-08 08:03 46.71589 10.62813 35084 ft 491 kts 129°
2026-05-08 08:03 46.67776 10.71050 35074 ft 490 kts 129°
2026-05-08 08:04 46.63963 10.79263 35076 ft 493 kts 129°
2026-05-08 08:04 46.60136 10.87484 35079 ft 490 kts 130°
2026-05-08 08:05 46.56317 10.95658 35088 ft 493 kts 130°
2026-05-08 08:05 46.52478 11.03856 35094 ft 491 kts 130°
2026-05-08 08:06 46.48643 11.12019 35093 ft 491 kts 130°
2026-05-08 08:06 46.44816 11.20143 35077 ft 489 kts 130°
2026-05-08 08:07 46.40952 11.28295 35061 ft 490 kts 132°
2026-05-08 08:07 46.36744 11.35994 35068 ft 488 kts 134°
2026-05-08 08:08 46.32473 11.43629 35081 ft 486 kts 134°
2026-05-08 08:08 46.28161 11.51312 35080 ft 487 kts 134°
2026-05-08 08:09 46.23839 11.58996 35062 ft 486 kts 134°
2026-05-08 08:09 46.19519 11.66651 35046 ft 486 kts 135°
2026-05-08 08:10 46.15200 11.74282 35054 ft 487 kts 135°
2026-05-08 08:10 46.10841 11.81966 35049 ft 485 kts 135°
2026-05-08 08:11 46.06534 11.89534 35050 ft 486 kts 135°
2026-05-08 08:11 46.02256 11.97033 35046 ft 486 kts 135°
2026-05-08 08:12 45.97984 12.04503 35044 ft 485 kts 135°
2026-05-08 08:12 45.93690 12.11987 35030 ft 488 kts 135°
2026-05-08 08:13 45.89386 12.19472 35035 ft 485 kts 135°
2026-05-08 08:13 45.85085 12.26931 35046 ft 487 kts 135°
2026-05-08 08:14 45.80768 12.34397 35041 ft 489 kts 135°
2026-05-08 08:14 45.76435 12.41870 35040 ft 488 kts 134°
2026-05-08 08:15 45.72092 12.49343 35039 ft 488 kts 135°
2026-05-08 08:15 45.67756 12.56782 35039 ft 489 kts 134°
2026-05-08 08:16 45.63389 12.64255 35039 ft 490 kts 134°
2026-05-08 08:16 45.59020 12.71711 35029 ft 490 kts 135°
2026-05-08 08:17 45.54647 12.79153 35026 ft 492 kts 135°
2026-05-08 08:17 45.50272 12.86581 35026 ft 489 kts 135°
2026-05-08 08:18 45.45878 12.94020 35021 ft 492 kts 135°
2026-05-08 08:18 45.41451 13.01495 35019 ft 491 kts 135°
2026-05-08 08:19 45.37024 13.08950 35019 ft 491 kts 135°
2026-05-08 08:19 45.32605 13.16371 35015 ft 491 kts 135°
2026-05-08 08:20 45.28164 13.23811 35019 ft 491 kts 135°
2026-05-08 08:20 45.23730 13.31220 35017 ft 491 kts 135°
2026-05-08 08:21 45.19269 13.38650 35023 ft 494 kts 135°
2026-05-08 08:21 45.14803 13.46074 35023 ft 492 kts 135°
2026-05-08 08:22 45.10348 13.53457 35018 ft 492 kts 135°
2026-05-08 08:22 45.05890 13.60827 35019 ft 493 kts 135°
2026-05-08 08:23 45.01431 13.68179 35006 ft 491 kts 135°
2026-05-08 08:23 44.96977 13.75504 35014 ft 494 kts 135°
2026-05-08 08:24 44.92514 13.82825 35015 ft 492 kts 135°
2026-05-08 08:24 44.88042 13.90140 35026 ft 493 kts 135°
2026-05-08 08:25 44.83569 13.97440 35027 ft 494 kts 136°
2026-05-08 08:25 44.79087 14.04734 35028 ft 492 kts 135°
2026-05-08 08:26 44.74617 14.11990 35023 ft 493 kts 135°
2026-05-08 08:26 44.70119 14.19273 35024 ft 491 kts 135°
2026-05-08 08:27 44.65641 14.26505 35022 ft 492 kts 135°
2026-05-08 08:27 44.61150 14.33738 35019 ft 491 kts 135°
2026-05-08 08:28 44.56660 14.40952 35021 ft 493 kts 135°
2026-05-08 08:28 44.52153 14.48179 35017 ft 490 kts 134°
2026-05-08 08:29 44.47970 14.55772 35017 ft 494 kts 131°
2026-05-08 08:29 44.43827 14.63434 35021 ft 494 kts 131°
2026-05-08 08:30 44.39651 14.71092 35014 ft 494 kts 132°
2026-05-08 08:30 44.33388 14.82504 35014 ft 494 kts 132°
2026-05-08 08:31 44.29207 14.90083 35008 ft 493 kts 132°
2026-05-08 08:31 44.25011 14.97665 35011 ft 495 kts 132°
2026-05-08 08:32 44.20814 15.05227 35017 ft 495 kts 132°
2026-05-08 08:32 44.16607 15.12785 35016 ft 494 kts 132°
2026-05-08 08:33 44.12404 15.20317 35017 ft 494 kts 132°
2026-05-08 08:33 44.08193 15.27841 35016 ft 495 kts 131°
2026-05-08 08:34 44.03969 15.35370 35013 ft 494 kts 131°
2026-05-08 08:34 43.99752 15.42867 35020 ft 492 kts 131°
2026-05-08 08:35 43.95526 15.50361 35018 ft 493 kts 131°
2026-05-08 08:35 43.91305 15.57826 35013 ft 491 kts 131°
2026-05-08 08:36 43.87084 15.65271 35020 ft 491 kts 132°
2026-05-08 08:36 43.82874 15.72681 35009 ft 489 kts 132°
2026-05-08 08:37 43.78663 15.80071 35008 ft 489 kts 132°
2026-05-08 08:37 43.74437 15.87469 35012 ft 490 kts 132°
2026-05-08 08:38 43.70222 15.94828 35015 ft 489 kts 132°
2026-05-08 08:38 43.65991 16.02196 35020 ft 490 kts 132°
2026-05-08 08:39 43.61750 16.09567 35016 ft 487 kts 132°
2026-05-08 08:39 43.57525 16.16888 35015 ft 489 kts 132°
2026-05-08 08:40 43.53285 16.24217 35011 ft 486 kts 132°
2026-05-08 08:40 43.49049 16.31522 35009 ft 488 kts 132°
2026-05-08 08:41 43.44841 16.38829 35009 ft 486 kts 131°
2026-05-08 08:41 43.40623 16.46140 35008 ft 488 kts 131°
2026-05-08 08:42 43.36398 16.53443 35003 ft 487 kts 131°
2026-05-08 08:42 43.32181 16.60713 35011 ft 487 kts 131°
2026-05-08 08:43 43.27957 16.67977 34998 ft 486 kts 132°
2026-05-08 08:43 43.23726 16.75234 34996 ft 487 kts 132°
2026-05-08 08:44 43.19502 16.82461 34993 ft 486 kts 132°
2026-05-08 08:44 43.15273 16.89678 34995 ft 487 kts 132°
2026-05-08 08:45 43.11039 16.96888 34990 ft 485 kts 132°
2026-05-08 08:45 43.06806 17.04077 34992 ft 487 kts 132°
2026-05-08 08:46 43.02556 17.11278 35001 ft 486 kts 132°
2026-05-08 08:46 42.98306 17.18459 35004 ft 486 kts 132°
2026-05-08 08:47 42.94052 17.25632 35003 ft 485 kts 132°
2026-05-08 08:47 42.89794 17.32793 35000 ft 486 kts 132°
2026-05-08 08:48 42.85531 17.39947 35008 ft 485 kts 132°
2026-05-08 08:48 42.81267 17.47083 35003 ft 485 kts 132°
2026-05-08 08:49 42.77009 17.54193 35011 ft 485 kts 132°
2026-05-08 08:49 42.72747 17.61291 35011 ft 484 kts 132°
2026-05-08 08:50 42.68477 17.68386 35001 ft 484 kts 133°
2026-05-08 08:50 42.64225 17.75435 35001 ft 483 kts 133°
2026-05-08 08:51 42.59968 17.82476 35001 ft 483 kts 133°
2026-05-08 08:51 42.55694 17.89526 35003 ft 484 kts 133°
2026-05-08 08:52 42.51415 17.96570 35009 ft 482 kts 133°
2026-05-08 08:52 42.47109 18.03640 35008 ft 482 kts 133°
2026-05-08 08:53 42.42808 18.10685 35007 ft 481 kts 133°
2026-05-08 08:53 42.38535 18.17668 35001 ft 481 kts 133°
2026-05-08 08:54 42.34265 18.24630 35004 ft 481 kts 133°
2026-05-08 08:54 42.29982 18.31598 35005 ft 480 kts 133°
2026-05-08 08:55 42.25708 18.38532 35003 ft 480 kts 133°
2026-05-08 08:55 42.21443 18.45437 35001 ft 479 kts 133°
2026-05-08 08:56 42.17165 18.52347 34997 ft 479 kts 133°
2026-05-08 08:56 42.12887 18.59242 34997 ft 479 kts 133°
2026-05-08 08:57 42.08614 18.66111 34992 ft 478 kts 133°
2026-05-08 08:57 42.04352 18.72948 34991 ft 476 kts 133°
2026-05-08 08:58 42.00078 18.79788 34985 ft 476 kts 133°
2026-05-08 08:58 41.95813 18.86598 34977 ft 477 kts 133°
2026-05-08 08:59 41.91526 18.93428 34984 ft 477 kts 133°
2026-05-08 08:59 41.87217 19.00275 34982 ft 479 kts 133°
2026-05-08 09:00 41.82901 19.07120 34982 ft 478 kts 133°
2026-05-08 09:00 41.78570 19.13972 35004 ft 480 kts 134°
2026-05-08 09:01 41.74218 19.20843 34972 ft 480 kts 133°
2026-05-08 09:01 41.69866 19.27697 34986 ft 482 kts 134°
2026-05-08 09:02 41.65486 19.34579 34981 ft 483 kts 134°
2026-05-08 09:02 41.61064 19.41510 34994 ft 483 kts 134°
2026-05-08 09:03 41.56656 19.48406 34996 ft 486 kts 134°
2026-05-08 09:03 41.52225 19.55321 35009 ft 486 kts 134°
2026-05-08 09:04 41.47766 19.62262 35007 ft 487 kts 134°
2026-05-08 09:04 41.43470 19.69300 34999 ft 491 kts 127°
2026-05-08 09:05 41.40603 19.77678 34984 ft 502 kts 108°
2026-05-08 09:05 41.39240 19.86925 34999 ft 505 kts 103°
2026-05-08 09:06 41.38615 19.91546 35176 ft 504 kts 103°
2026-05-08 09:06 41.37972 19.96183 34889 ft 509 kts 103°
2026-05-08 09:06 41.37316 20.00844 35048 ft 505 kts 104°
2026-05-08 09:06 41.36658 20.05455 35053 ft 504 kts 104°
2026-05-08 09:07 41.35325 20.14646 35040 ft 506 kts 104°
2026-05-08 09:07 41.33970 20.23846 35045 ft 509 kts 104°
2026-05-08 09:08 41.32605 20.33038 35055 ft 508 kts 104°
2026-05-08 09:08 41.31218 20.42292 35077 ft 512 kts 104°
2026-05-08 09:09 41.29825 20.51530 35079 ft 511 kts 104°
2026-05-08 09:09 41.28418 20.60791 35086 ft 514 kts 104°
2026-05-08 09:10 41.26995 20.70101 35089 ft 516 kts 105°
2026-05-08 09:10 41.25564 20.79416 35085 ft 515 kts 105°
2026-05-08 09:11 41.24120 20.88754 35073 ft 518 kts 105°
2026-05-08 09:11 41.22664 20.98119 35081 ft 518 kts 105°
2026-05-08 09:12 41.21195 21.07515 35103 ft 523 kts 105°
2026-05-08 09:12 41.19718 21.16914 35101 ft 520 kts 105°
2026-05-08 09:13 41.18232 21.26307 35089 ft 522 kts 105°
2026-05-08 09:13 41.16732 21.35738 35105 ft 523 kts 105°
2026-05-08 09:14 41.15230 21.45132 35105 ft 523 kts 105°
2026-05-08 09:14 41.13713 21.54568 35090 ft 526 kts 105°
2026-05-08 09:15 41.12185 21.64018 35097 ft 525 kts 105°
2026-05-08 09:15 41.10639 21.73526 35097 ft 528 kts 106°
2026-05-08 09:16 41.09096 21.82969 35093 ft 525 kts 106°
2026-05-08 09:16 41.06768 21.92056 35091 ft 521 kts 122°
2026-05-08 09:17 41.02836 21.99936 35088 ft 511 kts 132°
2026-05-08 09:17 40.98601 22.07487 35087 ft 511 kts 133°
2026-05-08 09:18 40.94329 22.15029 35091 ft 514 kts 133°
2026-05-08 09:18 40.90036 22.22566 35097 ft 514 kts 133°
2026-05-08 09:19 40.85724 22.30102 35098 ft 514 kts 133°
2026-05-08 09:19 40.81400 22.37633 35093 ft 516 kts 133°
2026-05-08 09:20 40.77080 22.45137 35081 ft 514 kts 133°
2026-05-08 09:20 40.72727 22.52674 35084 ft 516 kts 133°
2026-05-08 09:21 40.68399 22.60156 35090 ft 515 kts 133°
2026-05-08 09:23 40.53113 22.86416 35087 ft 518 kts 134°
2026-05-08 09:23 40.48728 22.93910 35078 ft 517 kts 134°
2026-05-08 09:24 40.44141 23.01240 35244 ft 523 kts 140°
2026-05-08 09:24 40.41655 23.04699 36010 ft 519 kts 140°
2026-05-08 09:24 40.39199 23.08097 36866 ft 514 kts 139°
2026-05-08 09:24 40.36726 23.11510 37074 ft 517 kts 140°
2026-05-08 09:25 40.34254 23.14921 37090 ft 515 kts 140°
2026-05-08 09:25 40.29340 23.21691 37080 ft 512 kts 139°
2026-05-08 09:26 40.24429 23.28441 37085 ft 515 kts 139°
2026-05-08 09:26 40.19488 23.35217 37079 ft 514 kts 140°
2026-05-08 09:27 40.14545 23.41983 37080 ft 516 kts 140°
2026-05-08 09:27 40.09598 23.48741 37090 ft 515 kts 140°
2026-05-08 09:28 40.04632 23.55505 37090 ft 519 kts 140°
2026-05-08 09:28 39.99662 23.62265 37089 ft 515 kts 140°
2026-05-08 09:29 39.94853 23.68785 37067 ft 521 kts 140°